Wind_Speed
18 17 17 17 17 16 15 14 14 14 14 13 12 11 11 11 10 10 9 8 8 7 7 6 6 6 6 7 7 8 8 9 9 10 10 10 9 9 9 10 10 10 10
20 19 18 18 18 18 17 17 16 16 16 15 14 13 13 13 12 12 11 10 9 9 9 8 8 7 7 8 8 9 9 9 10 10 11 11 10 10 10 11 10 9 10
22 20 20 20 20 19 19 19 18 18 17 16 16 16 15 15 14 13 13 11 11 10 10 10 10 9 9 9 10 10 10 10 11 11 11 11 11 10 11 12 11 10 10
22 21 20 21 20 20 20 20 21 20 20 19 18 18 17 17 16 15 14 13 13 12 12 12 12 11 10 10 11 11 11 11 11 11 11 11 11 11 11 12 12 11 11
22 22 21 22 22 22 22 22 22 23 22 22 21 21 20 19 19 18 16 16 15 14 14 14 14 13 12 12 11 11 10 10 11 11 11 11 12 12 12 12 12 12 13
23 23 23 23 24 24 24 24 24 23 23 23 23 23 21 21 21 20 19 18 17 16 16 15 15 14 14 13 12 12 11 12 11 11 11 12 12 12 12 12 13 13 14
25 25 25 25 25 26 26 26 24 23 24 24 24 24 23 22 22 21 20 19 18 17 16 16 15 15 14 14 14 13 13 13 12 12 12 12 12 12 12 13 14 14 15
26 26 26 26 26 26 26 27 26 25 25 25 24 24 24 24 23 22 21 20 19 18 18 18 17 17 16 15 15 15 15 14 13 14 14 13 13 13 14 14 14 15 16
26 27 28 27 27 27 26 27 27 27 27 26 26 26 25 24 23 22 21 21 20 20 19 19 19 19 18 17 17 17 17 16 16 16 16 15 15 15 16 16 16 16 17
27 28 29 28 28 27 27 27 28 28 28 27 27 26 25 25 23 23 22 22 22 22 21 20 20 20 20 20 20 19 19 18 18 17 17 17 17 17 17 17 18 18 18
27 28 29 28 28 27 27 28 29 29 28 28 28 28 26 25 24 23 23 23 23 23 22 22 22 22 21 21 21 20 20 19 18 18 18 18 19 19 19 19 18 18 19
27 28 29 29 28 28 27 28 29 29 29 29 28 28 26 26 25 24 24 24 24 23 23 23 23 23 23 22 21 21 21 20 19 19 20 20 19 20 19 19 19 19 20
28 28 28 29 29 30 29 29 30 30 30 29 28 28 28 26 25 24 24 25 24 24 24 24 23 24 23 23 22 22 22 22 21 21 21 21 20 20 20 20 21 21 21
29 29 29 29 30 30 30 30 30 30 30 29 29 29 29 27 26 25 25 25 25 24 24 24 23 24 24 23 23 23 23 23 22 22 22 22 21 21 21 21 21 22 21
29 29 30 30 29 30 30 29 30 30 31 30 29 28 28 27 26 26 25 25 25 25 24 24 23 24 23 23 23 23 23 23 23 23 22 22 22 21 22 22 22 21 22
29 29 29 29 29 30 30 30 30 31 32 31 31 30 29 27 26 27 27 27 26 26 25 25 24 24 24 23 23 23 23 23 24 23 23 22 22 22 22 22 22 22 22
28 28 28 29 30 30 31 32 32 32 32 31 31 31 30 29 28 27 28 28 28 28 28 26 25 25 25 24 24 23 23 24 24 23 23 23 22 22 22 23 23 23 22
29 28 29 29 29 30 31 33 32 32 31 30 30 30 30 30 29 29 29 30 30 29 29 27 27 27 26 25 25 24 24 25 24 24 23 23 23 24 24 24 24 24 24
30 29 30 30 30 31 31 31 32 30 30 30 29 30 30 30 30 30 29 30 30 29 28 28 28 27 26 25 25 25 25 25 25 24 24 24 24 24 25 25 25 25 25
30 30 30 31 31 31 31 31 31 31 30 30 30 30 30 30 30 30 30 30 30 29 29 28 27 26 26 25 25 25 25 25 25 24 25 25 25 25 25 25 25 25 25
28 28 28 28 29 30 30 30 30 30 29 30 31 30 30 30 30 30 30 30 29 29 29 28 27 27 26 25 25 25 25 25 25 25 25 25 25 26 26 26 26 26 26
26 26 27 27 28 28 28 28 30 30 30 31 32 32 31 30 30 30 31 31 30 30 30 29 28 27 26 26 25 25 25 26 26 26 26 26 26 27 27 27 27 27 27
23 24 25 26 25 26 27 27 27 28 29 30 31 31 30 30 30 31 31 31 30 30 31 30 30 30 29 28 27 27 27 27 27 27 28 28 28 28 28 28 28 28 27
23 23 24 24 24 24 25 25 26 27 29 29 29 29 30 30 31 31 31 31 31 30 31 31 31 31 30 29 28 28 28 28 28 28 28 28 29 29 28 28 28 28 28
21 22 22 23 23 23 24 24 25 26 27 27 27 28 29 29 29 30 30 31 31 31 31 30 31 31 31 30 29 29 29 29 30 30 30 30 30 30 30 29 29 29 29
21 21 21 22 23 23 23 23 23 24 24 25 26 27 27 28 28 29 29 30 30 30 30 30 30 30 30 30 29 29 29 30 31 32 31 31 30 30 30 29 30 30 30
Wind_Direction
264 266 269 272 273 275 276 270 267 270 268 269 272 276 278 279 281 283 283 285 284 282 284 286 287 289 291 294 293 292 291 285 283 289 289 288 290 290 287 283 281 276 276
263 265 269 270 271 271 273 270 270 268 266 266 268 271 273 275 277 279 279 282 281 278 277 279 281 283 288 290 293 292 293 291 288 291 291 289 287 286 286 289 287 279 276
262 264 266 268 268 268 269 267 269 266 264 265 268 271 271 272 273 275 275 279 279 277 275 276 280 282 285 288 290 292 291 290 287 287 289 289 288 286 284 284 281 278 277
261 262 263 264 265 267 266 266 267 263 262 264 267 269 268 268 271 273 274 276 277 274 272 274 278 280 283 286 289 293 290 289 288 286 286 286 286 284 284 285 280 274 276
262 262 262 262 262 264 265 264 264 261 260 263 264 264 265 266 267 268 269 272 272 271 270 271 273 277 281 284 287 291 290 289 290 288 286 283 285 285 285 283 281 280 279
260 262 262 262 261 262 263 262 262 260 259 262 263 261 263 265 264 264 264 267 270 269 269 269 271 275 278 279 283 287 288 290 291 290 287 286 286 288 287 288 286 281 280
260 261 261 262 263 261 260 259 259 259 259 261 263 262 261 264 263 263 261 263 267 268 267 268 269 273 275 277 280 285 287 288 288 290 288 288 288 288 287 287 286 283 280
260 260 260 261 261 260 259 257 257 258 259 260 263 264 262 261 261 261 260 261 264 265 265 266 267 268 271 274 278 282 283 284 285 287 289 287 287 287 287 287 287 286 284
260 260 260 261 260 259 258 256 255 256 258 259 260 261 261 259 258 258 258 259 262 263 263 263 263 265 268 272 276 279 280 280 281 284 287 286 284 284 285 286 286 287 287
260 259 259 259 260 259 256 255 253 254 256 257 259 259 261 259 256 254 255 257 260 261 263 264 265 265 268 272 274 275 277 279 280 281 283 285 284 282 283 283 284 285 286
261 260 259 258 257 258 258 255 252 253 255 257 259 260 262 261 259 258 255 256 259 261 263 264 265 266 266 268 271 273 274 276 277 278 281 283 284 284 283 282 282 284 286
262 261 259 258 256 256 257 256 253 253 254 255 257 258 259 260 261 258 256 255 257 260 263 265 264 264 263 265 268 271 273 275 275 277 278 280 282 284 283 284 285 286 287
262 261 260 259 258 258 258 258 255 254 255 254 254 255 257 259 259 258 255 254 256 260 262 264 264 264 265 267 270 272 274 275 275 277 278 279 278 281 282 284 285 286 287
263 262 262 259 259 259 260 259 257 255 254 254 253 255 255 256 257 255 254 253 257 260 264 266 267 268 267 267 269 272 273 275 275 277 277 278 279 280 281 283 284 286 287
264 262 262 260 258 258 259 258 257 257 256 256 255 255 255 254 255 256 255 254 256 258 262 266 267 267 267 267 268 270 272 273 275 277 277 276 278 280 282 283 284 286 287
262 262 261 260 258 257 256 257 257 256 256 256 256 256 256 253 254 255 256 255 256 258 261 265 266 266 266 267 269 269 270 273 274 276 276 276 277 279 282 284 285 286 286
261 261 260 260 257 255 255 256 256 255 256 256 254 254 255 255 254 253 254 254 256 258 261 264 264 265 266 267 268 268 269 271 274 276 277 277 278 280 282 285 286 288 289
262 261 259 258 258 256 256 257 256 254 255 257 255 254 255 254 252 253 254 255 255 258 261 262 264 264 264 265 265 267 268 269 271 274 276 277 279 280 282 284 285 286 288
261 261 259 260 262 260 257 257 254 253 254 254 254 254 254 254 252 251 253 255 257 258 259 261 263 262 262 263 264 266 266 267 270 272 274 276 277 279 281 282 283 284 286
264 263 263 263 263 262 259 257 253 253 254 252 252 253 254 253 251 250 251 253 254 255 256 258 260 260 260 263 266 266 266 267 269 271 273 275 276 277 279 280 281 282 283
264 263 265 264 264 263 260 256 254 252 254 253 252 252 251 251 250 251 251 252 252 253 255 257 257 258 260 264 267 268 267 268 269 271 273 275 276 278 278 280 281 281 281
267 265 264 263 262 262 261 259 256 254 253 253 252 250 249 249 249 250 250 253 253 255 257 259 258 258 260 264 266 268 269 268 270 272 274 276 277 278 279 279 280 280 281
271 267 264 261 263 264 262 261 257 254 253 252 251 250 248 248 250 251 252 253 254 256 258 259 259 259 261 263 265 268 268 267 269 272 273 275 276 277 277 277 278 279 280
272 270 266 266 268 267 265 263 260 256 253 251 251 250 249 250 251 252 252 253 253 256 257 258 260 260 262 263 265 267 268 269 270 272 274 275 277 277 276 276 277 279 279
272 272 270 270 270 267 264 263 260 257 253 251 252 251 250 249 250 252 253 253 253 255 256 257 260 261 262 264 266 266 268 269 271 273 274 275 277 277 278 278 278 278 279
277 274 272 271 270 268 264 261 260 259 255 251 252 251 248 248 248 250 251 251 252 253 256 258 261 262 262 264 266 268 269 271 272 272 273 274 274 275 276 276 277 277 278
Height
5885 5884 5884 5884 5884 5884 5883 5883 5883 5883 5882 5882 5882 5881 5881 5880 5879 5879 5878 5877 5876 5875 5874 5874 5873 5872 5872 5871 5870 5870 5869 5868 5867 5866 5865 5864 5863 5862 5861 5860 5859 5859 5858
5880 5880 5880 5880 5880 5880 5879 5879 5879 5879 5879 5879 5879 5878 5878 5877 5877 5876 5875 5874 5874 5873 5872 5872 5871 5870 5870 5869 5869 5868 5867 5866 5865 5864 5863 5862 5861 5860 5859 5858 5857 5856 5855
5874 5875 5875 5875 5875 5875 5875 5875 5875 5875 5875 5875 5875 5875 5874 5874 5874 5873 5872 5872 5871 5870 5870 5869 5868 5868 5867 5867 5866 5865 5864 5863 5862 5861 5860 5859 5858 5858 5857 5856 5855 5854 5853
5869 5869 5869 5869 5869 5870 5870 5870 5870 5870 5870 5870 5871 5871 5871 5870 5870 5869 5869 5868 5868 5867 5867 5866 5865 5865 5864 5864 5863 5862 5861 5861 5860 5859 5857 5857 5856 5855 5854 5853 5852 5851 5850
5863 5863 5863 5864 5864 5864 5864 5865 5865 5865 5865 5866 5866 5866 5866 5866 5866 5865 5865 5865 5864 5864 5863 5863 5862 5862 5861 5861 5860 5859 5858 5857 5857 5855 5854 5853 5852 5852 5851 5850 5849 5848 5847
5857 5857 5857 5857 5858 5858 5858 5859 5859 5860 5860 5860 5860 5861 5861 5861 5861 5861 5861 5860 5860 5860 5859 5859 5858 5858 5858 5857 5857 5856 5855 5854 5853 5852 5851 5850 5849 5848 5847 5846 5845 5844 5844
5850 5850 5850 5851 5851 5851 5852 5852 5853 5853 5854 5854 5855 5855 5855 5855 5855 5856 5855 5855 5855 5855 5855 5855 5854 5854 5854 5853 5853 5852 5852 5851 5850 5849 5848 5847 5846 5845 5844 5843 5842 5841 5840
5843 5843 5844 5844 5844 5844 5845 5845 5846 5847 5847 5848 5849 5849 5849 5849 5849 5850 5850 5850 5850 5850 5850 5850 5850 5850 5849 5849 5849 5848 5848 5847 5846 5845 5844 5843 5842 5841 5840 5839 5838 5837 5836
5836 5836 5836 5836 5837 5837 5837 5838 5839 5840 5841 5841 5842 5842 5842 5843 5843 5843 5844 5844 5845 5845 5845 5845 5845 5845 5845 5844 5844 5844 5843 5842 5842 5841 5840 5839 5838 5837 5836 5835 5834 5833 5832
5828 5829 5829 5829 5829 5830 5830 5831 5831 5832 5833 5834 5835 5835 5835 5835 5836 5836 5838 5838 5839 5839 5839 5840 5840 5839 5839 5839 5839 5838 5838 5837 5837 5836 5835 5834 5833 5833 5832 5830 5829 5828 5827
5820 5821 5821 5822 5822 5822 5823 5823 5824 5825 5826 5826 5827 5828 5828 5828 5829 5830 5831 5832 5832 5833 5833 5833 5833 5833 5833 5833 5833 5833 5832 5832 5831 5831 5830 5829 5828 5828 5826 5825 5824 5823 5822
5812 5813 5813 5814 5814 5815 5815 5816 5816 5817 5818 5819 5819 5820 5821 5822 5823 5824 5824 5825 5826 5826 5826 5827 5827 5826 5826 5827 5827 5827 5827 5826 5825 5825 5825 5824 5823 5822 5821 5820 5819 5818 5816
5804 5804 5805 5806 5806 5806 5807 5807 5808 5809 5810 5810 5811 5812 5813 5815 5816 5817 5817 5818 5818 5819 5819 5820 5820 5820 5820 5820 5820 5820 5820 5820 5819 5819 5818 5818 5817 5816 5816 5815 5813 5812 5810
5795 5796 5797 5797 5798 5798 5799 5799 5800 5800 5802 5803 5804 5805 5806 5807 5808 5809 5810 5811 5811 5812 5813 5813 5813 5813 5813 5813 5814 5814 5814 5813 5813 5813 5812 5811 5811 5810 5810 5809 5807 5806 5804
5786 5787 5788 5788 5789 5790 5790 5791 5791 5792 5793 5794 5796 5797 5798 5799 5800 5801 5802 5803 5804 5805 5806 5806 5806 5806 5806 5807 5807 5807 5807 5807 5807 5807 5806 5805 5805 5804 5804 5803 5801 5800 5798
5777 5778 5779 5779 5780 5781 5781 5782 5783 5784 5785 5786 5787 5789 5789 5791 5792 5794 5795 5796 5797 5798 5799 5799 5799 5800 5800 5800 5801 5801 5801 5801 5801 5800 5800 5799 5799 5798 5797 5796 5795 5794 5792
5769 5769 5769 5770 5771 5772 5772 5773 5774 5775 5776 5777 5779 5780 5782 5783 5785 5786 5787 5789 5790 5791 5791 5792 5792 5793 5794 5794 5794 5794 5794 5794 5794 5794 5793 5793 5792 5792 5791 5790 5789 5787 5786
5760 5760 5760 5761 5761 5762 5763 5764 5765 5765 5767 5768 5770 5772 5773 5775 5777 5778 5779 5781 5782 5783 5784 5784 5785 5786 5787 5787 5787 5788 5788 5788 5788 5787 5787 5786 5786 5785 5784 5783 5782 5781 5779
5751 5751 5751 5752 5752 5753 5754 5754 5755 5756 5758 5760 5761 5763 5765 5766 5768 5770 5771 5772 5774 5775 5776 5777 5778 5779 5780 5780 5780 5780 5780 5781 5781 5780 5780 5779 5779 5778 5777 5776 5775 5773 5772
5741 5742 5742 5742 5743 5743 5744 5745 5746 5747 5749 5751 5753 5755 5756 5758 5760 5761 5763 5765 5766 5767 5768 5769 5770 5771 5772 5773 5773 5773 5773 5773 5774 5774 5773 5772 5772 5771 5770 5769 5768 5766 5765
5733 5733 5733 5733 5733 5734 5734 5735 5737 5739 5740 5742 5744 5746 5748 5750 5751 5753 5755 5756 5758 5759 5760 5762 5763 5764 5765 5765 5766 5766 5766 5766 5766 5766 5766 5765 5764 5763 5762 5761 5760 5759 5758
5725 5725 5724 5724 5725 5725 5725 5726 5727 5729 5731 5733 5735 5736 5738 5741 5743 5745 5746 5748 5749 5751 5752 5754 5755 5756 5757 5758 5758 5758 5758 5758 5758 5758 5758 5757 5757 5756 5755 5754 5753 5751 5750
5718 5717 5717 5717 5717 5717 5717 5717 5718 5719 5721 5723 5725 5727 5729 5732 5734 5736 5738 5739 5741 5743 5744 5745 5747 5748 5749 5750 5750 5750 5751 5751 5750 5750 5750 5749 5748 5747 5746 5745 5744 5744 5743
5711 5710 5710 5710 5710 5709 5709 5709 5709 5710 5712 5714 5716 5718 5720 5722 5724 5727 5729 5730 5732 5734 5735 5737 5738 5739 5740 5741 5742 5742 5742 5742 5742 5742 5741 5740 5739 5738 5737 5737 5736 5735 5735
5704 5703 5703 5703 5702 5701 5701 5701 5702 5703 5704 5706 5707 5709 5711 5713 5715 5717 5719 5722 5724 5725 5727 5729 5730 5731 5732 5733 5733 5733 5734 5734 5734 5733 5732 5731 5730 5730 5729 5728 5728 5727 5726
5697 5697 5696 5696 5695 5694 5694 5694 5695 5695 5696 5698 5700 5701 5703 5705 5707 5709 5711 5713 5715 5717 5718 5720 5721 5722 5723 5724 5724 5724 5725 5724 5724 5723 5723 5722 5722 5721 5720 5720 5719 5718 5717